Preview of NWS' New Version of Forecast
This preview is not operational and should not be used for support decisions.

Regional Weather Roundup (RWR)

Issued by Gray - Portland, ME (GYX)

                            
000
ASUS41 KGYX 201405
RWRGYX
WEATHER ROUNDUP FOR MAINE AND NEW HAMPSHIRE
NATIONAL WEATHER SERVICE GRAY ME
1000 AM EDT TUE AUG 20 2019

MEZ002-005-006-010-012-015-018-020-021-024-026-027-029-201500-
MAINE
  
CITY           SKY/WX    TMP DP  RH WIND       PRES   REMARKS
PORTLAND       FAIR      79  60  52 N5        30.06S                  
SANFORD        FAIR      78  62  57 VRB3      30.08S                  
BAR HARBOR     FAIR      74  64  71 VRB5      30.04R                  
WISCASSET      FAIR      78  62  57 VRB3      30.07R                  
ROCKLAND       FAIR      77  64  64 MISG      30.05R                  
FRYEBURG       FAIR      76  57  51 CALM      30.09S                  
LEWISTONAUBURN FAIR      75  60  59 NW8       30.08R                  
AUGUSTA        FAIR      75  61  61 NW7       30.08R                  
WATERVILLE     FAIR      74  59  59 N6        30.05R                  
BANGOR         FAIR      75  61  61 N8        30.04S                  
GREENVILLE       N/A     69  54  58 NW8       30.07R                  
MILLINOCKET    FAIR      75  57  53 NW6       30.05S                  
HOULTON        FAIR      73  53  49 N6        30.01S                  
PRESQUE ISLE   FAIR      72  56  57 W6        30.02S                  
FRENCHVILLE    FAIR      69  56  62 W8        30.01R                  
CARIBOU        FAIR      74  57  55 VRB5      30.01R                  
$$

NHZ002-005-008-009-011-012-014-201500-
NEW HAMPSHIRE
  
CITY           SKY/WX    TMP DP  RH WIND       PRES   REMARKS
PORTSMOUTH     MOSUNNY   78  62  58 N3        30.06R                  
ROCHESTER      FAIR      77  63  61 NW5       30.07S                  
NASHUA         FAIR      77  62  59 VRB5      30.09S                  
MANCHESTER     FAIR      78  60  53 VRB5      30.07S                  
CONCORD        FAIR      75  59  57 VRB3      30.09S                  
LACONIA        FAIR      74  61  63 SW5       30.10S                  
PLYMOUTH       FAIR      74  59  59 NW3       30.09S                  
BERLIN         FAIR      73  52  47 CALM      30.11S                  
WHITEFIELD     FAIR      74  53  48 VRB5      30.12S                  
JAFFREY        FAIR      75  57  53 VRB3      30.14S                  
KEENE          FAIR      72  60  66 CALM      30.12S                  
LEBANON        FAIR      75  58  55 CALM      30.11S                  
MT WASHINGTON  MOSUNNY   52  18  25 N15         N/A                   
$$

VTZ005-007-008-201500-
VERMONT
  
CITY           SKY/WX    TMP DP  RH WIND       PRES   REMARKS
ST JOHNSBURY     N/A     72  54  53 MISG      30.09F                  
MONTPELIER     FAIR      70  56  61 CALM      30.15F                  
BURLINGTON     FAIR      74  57  55 S3        30.10S                  
$$

MAZ007-012-024-CTZ003-RIZ002-NYZ038-NYZ072-201500-
SOUTHERN NEW ENGLAND AND NY
  
CITY           SKY/WX    TMP DP  RH WIND       PRES   REMARKS
BOSTON         FAIR      82  59  45 N6        30.08R                  
WORCESTER      FAIR      74  57  55 VRB6      30.13R                  
NANTUCKET      FAIR      81  65  58 NW10      30.07R                  
PROVIDENCE     FAIR      80  60  50 N10       30.09S                  
HARTFORD       FAIR      80  57  45 NW6       30.11S                  
ALBANY         FAIR      77  59  53 VRB5      30.12S                  
NEW YORK CITY  FAIR      80  61  52 NE9       30.10S                  
$$

ANZ081-ANZ082-ANZ150-NHZ014-MEZ023>029-201500-
COASTAL MARINE OBSERVATIONS
  
STATION/POSITION TIME  TEMP    WIND        PRES    WAVE
                       AIR SEA DIR/SP/G            HT/PER
                 (UTC) (F)     (DEG/KT/KT) (MB)    (FT/S)
MATINICUS ROCK   1350   64                 1017.1R
ISLE OF SHOALS   1300   70     320/ 11/ 12 1017.4R
JEFFREYS LEDGE   1338      65                N/A     2/10
CASHES LEDGE BUO 1350   64 63  320/  8/ 10 1017.8R   2/11
GEORGES BANK BUO 1350   70 73  290/ 10/ 12 1017.1R   3/ 7
$$

.............KEY..............
   WCI - WIND CHILL
   TC  - TEMPERATURE IN CELSIUS
   VSB - VISIBILITY IN MILES
   HX  - HEAT INDEX
   FAIR- INDICATES FEW OR NO CLOUDS BELOW 12,000 FT, WITH NO 
         SIGNIFICANT WEATHER AND/OR OBSTRUCTIONS TO VISIBILITY.